Location: Dob?e?
(49.9411°N, 15.1496°E)
Time: 20:04:55
(UTC+00:00)

DELFI C3 - Pass Details

Date: 31 October 2021
Orbit: 529 x 543 km, 97.4° (Epoch: 04 December)

Event Time Altitude Azimuth Distance (km) Brightness Sun altitude
Exits shadow 19:09:53 15° 296° (WNW) 1,474 ? -34.2°
Drops below altitude 10° 19:11:12 10° 314° (NW) 1,789 ? -34.4°
Sets 19:13:51 0° 333° (NNW) 2,687 ? -34.8°
